FW1825 Weather Reports


time (UTC)temp
C
wind
direction
speed
KPH
gust
KPH
rain 1hr
cm
rain 24hr
cm
rain mn
cm
humidity
%
barometer
mb
20260505040035 16 171 12.9 29.0 0.00 0.00 0.00 59 1005.3
20260505035532 16 158 14.5 30.6 0.00 0.00 0.00 59 1005.1
20260505035031 15 171 12.9 30.6 0.00 0.00 0.00 58 1005.0
20260505034532 15 165 11.3 24.1 0.00 0.00 0.00 58 1005.1
20260505034031 16 189 12.9 24.1 0.00 0.00 0.00 58 1005.1
20260505033529 16 178 12.9 24.1 0.00 0.00 0.00 58 1005.1
20260505033030 16 167 12.9 27.4 0.00 0.00 0.00 57 1005.3
20260505032529 16 155 14.5 27.4 0.00 0.00 0.00 57 1005.2
20260505032030 16 139 14.5 29.0 0.00 0.00 0.00 56 1005.3
20260505032013 16 151 12.9 29.0 0.00 0.00 0.00 56 1005.3
20260505031026 16 155 14.5 25.7 0.00 0.00 0.00 56 1005.3
20260505030525 16 190 14.5 29.0 0.00 0.00 0.00 56 1005.3
20260505030250 16 161 14.5 29.0 0.00 0.00 0.00 55 1005.2
20260505025525 16 151 14.5 27.4 0.00 0.00 0.00 55 1005.3
20260505025025 16 173 14.5 27.4 0.00 0.00 0.00 55 1005.3
20260505024527 16 173 16.1 33.8 0.00 0.00 0.00 55 1005.4
20260505024026 16 149 14.5 33.8 0.00 0.00 0.00 54 1005.4
20260505023526 16 171 14.5 25.7 0.00 0.00 0.00 54 1005.5
20260505023025 16 137 16.1 27.4 0.00 0.00 0.00 54 1005.6
20260505022526 16 166 16.1 27.4 0.00 0.00 0.00 54 1005.5
20260505022026 16 161 14.5 27.4 0.00 0.00 0.00 54 1005.7
20260505021525 16 158 14.5 33.8 0.00 0.00 0.00 53 1005.7
20260505021027 16 173 16.1 33.8 0.00 0.00 0.00 53 1005.6
20260505020525 17 179 16.1 30.6 0.00 0.00 0.00 53 1005.7
20260505020025 17 146 14.5 24.1 0.00 0.00 0.00 53 1005.7
20260505015525 17 169 16.1 25.7 0.00 0.00 0.00 52 1005.6
20260505015023 17 150 14.5 25.7 0.00 0.00 0.00 52 1005.6
20260505014523 17 157 16.1 29.0 0.00 0.00 0.00 52 1005.6
20260505014020 17 171 17.7 33.8 0.00 0.00 0.00 52 1005.6
20260505013520 17 165 19.3 33.8 0.00 0.00 0.00 52 1005.6
20260505013020 17 172 17.7 32.2 0.00 0.00 0.00 52 1005.5
20260505012516 17 176 16.1 30.6 0.00 0.00 0.00 52 1005.5
20260505012015 17 173 16.1 25.7 0.00 0.00 0.00 51 1005.5
20260505011514 17 157 16.1 25.7 0.00 0.00 0.00 51 1005.6
20260505011015 17 172 16.1 30.6 0.00 0.00 0.00 50 1005.5
20260505010514 17 173 17.7 33.8 0.00 0.00 0.00 50 1005.5
20260505010010 17 156 16.1 33.8 0.00 0.00 0.00 50 1005.5
20260505005509 17 161 14.5 33.8 0.00 0.00 0.00 51 1005.5
20260505005009 17 157 12.9 24.1 0.00 0.00 0.00 50 1005.4
20260505004505 17 170 11.3 20.9 0.00 0.00 0.00 49 1005.4
20260505004231 18 153 12.9 20.9 0.00 0.00 0.00 48 1005.4
20260505003720 18 140 12.9 25.7 0.00 0.00 0.00 48 1005.5
20260505003223 18 167 11.3 24.1 0.00 0.00 0.00 47 1005.4
20260505002455 18 169 9.7 22.5 0.00 0.00 0.00 45 1005.4
20260505001958 18 148 11.3 22.5 0.00 0.00 0.00 44 1005.5
20260505001457 18 181 9.7 17.7 0.00 0.00 0.00 43 1005.4
20260505001219 18 162 9.7 17.7 0.00 0.00 0.00 43 1005.3
20260505000452 18 157 9.7 19.3 0.00 0.00 0.00 43 1005.3
20260504235951 18 165 11.3 25.7 0.00 0.00 0.00 44 1005.3
20260504235452 18 163 11.3 25.7 0.00 0.00 0.00 44 1005.4
20260504234951 18 155 12.9 20.9 0.00 0.00 0.00 44 1005.3
20260504234931 19 153 12.9 20.9 0.00 0.00 0.00 43 1005.4
20260504233950 19 157 12.9 27.4 0.00 0.00 0.00 42 1005.4
20260504233724 19 154 16.1 27.4 0.00 0.00 0.00 42 1005.3
20260504232949 20 167 14.5 27.4 0.00 0.00 0.00 41 1005.4
20260504232450 20 120 14.5 25.7 0.00 0.00 0.00 42 1005.3
20260504231949 20 184 11.3 25.7 0.00 0.00 0.00 40 1005.2
20260504231453 20 144 8.0 25.7 0.00 0.00 0.00 39 1005.4
20260504230949 20 173 4.8 11.3 0.00 0.00 0.00 37 1005.3
20260504230450 20 235 6.4 16.1 0.00 0.00 0.00 41 1005.3
20260504225948 20 221 8.0 16.1 0.00 0.00 0.00 37 1005.3
20260504225446 20 234 9.7 19.3 0.00 0.00 0.00 39 1005.4
20260504224944 20 234 12.9 22.5 0.00 0.00 0.00 39 1005.4
20260504224708 20 233 12.9 22.5 0.00 0.00 0.00 37 1005.5
20260504223946 21 235 12.9 20.9 0.00 0.00 0.00 38 1005.7
20260504223443 21 229 12.9 27.4 0.00 0.00 0.00 37 1005.7
20260504223149 21 251 11.3 29.0 0.00 0.00 0.00 37 1005.6
20260504223036 21 229 12.9 27.4 0.00 0.00 0.00 39 1005.8
20260504221942 21 230 11.3 29.0 0.00 0.00 0.00 37 1005.6
20260504221441 21 229 9.7 22.5 0.00 0.00 0.00 39 1005.6
20260504220940 21 194 9.7 22.5 0.00 0.00 0.00 37 1005.6
20260504220441 21 185 9.7 19.3 0.00 0.00 0.00 42 1005.8
20260504215944 21 240 12.9 25.7 0.00 0.00 0.00 39 1005.8
20260504215442 21 242 12.9 25.7 0.00 0.00 0.00 36 1005.9
20260504215205 21 213 12.9 25.7 0.00 0.00 0.00 39 1005.8
20260504214443 21 192 14.5 25.7 0.00 0.00 0.00 39 1005.7
20260504214201 21 235 14.5 25.7 0.00 0.00 0.00 38 1005.8
20260504213438 21 250 12.9 25.7 0.00 0.00 0.00 37 1005.9
20260504212938 21 211 11.3 25.7 0.00 0.00 0.00 40 1005.9
20260504212438 21 245 8.0 25.7 0.00 0.00 0.00 38 1005.8
20260504211938 20 247 9.7 19.3 0.00 0.00 0.00 44 1005.8
20260504211437 20 242 12.9 32.2 0.00 0.00 0.00 41 1005.8
20260504210935 21 175 11.3 32.2 0.00 0.00 0.00 42 1005.9
20260504210432 20 171 11.3 30.6 0.00 0.00 0.00 40 1005.9
20260504205930 20 235 11.3 30.6 0.00 0.00 0.00 40 1005.9
20260504205431 21 236 11.3 24.1 0.00 0.00 0.00 38 1006.3
20260504204931 20 209 9.7 19.3 0.00 0.00 0.00 40 1006.0
20260504204702 20 242 9.7 19.3 0.00 0.00 0.00 39 1006.0
20260504203932 21 172 11.3 29.0 0.00 0.00 0.00 39 1006.2
20260504203430 21 225 16.1 29.0 0.00 0.00 0.00 44 1006.2
20260504202931 20 227 14.5 25.7 0.00 0.00 0.00 42 1006.4
20260504202653 20 253 11.3 24.1 0.00 0.00 0.00 48 1006.4
20260504201933 20 240 14.5 32.2 0.00 0.00 0.00 42 1006.3
20260504201432 20 219 14.5 32.2 0.00 0.00 0.00 41 1006.3
20260504200931 20 227 9.7 30.6 0.00 0.00 0.00 47 1006.4
20260504200428 19 205 12.9 32.2 0.00 0.00 0.00 44 1006.3
20260504195925 20 209 14.5 32.2 0.00 0.00 0.00 43 1006.6
20260504195909 20 207 14.5 27.4 0.00 0.00 0.00 45 1006.7
20260504194923 20 200 12.9 27.4 0.00 0.00 0.00 43 1006.9
20260504194642 20 198 11.3 20.9 0.00 0.00 0.00 43 1006.8
20260504193921 21 234 14.5 27.4 0.00 0.00 0.00 43 1006.9
20260504193646 21 194 16.1 27.4 0.00 0.00 0.00 45 1007.0
20260504192922 20 228 14.5 29.0 0.00 0.00 0.00 46 1007.1
20260504192422 20 237 11.3 29.0 0.00 0.00 0.00 49 1007.2
20260504192144 19 221 12.9 20.9 0.00 0.00 0.00 47 1007.2
20260504191422 20 187 14.5 24.1 0.00 0.00 0.00 47 1007.1
20260504190921 19 242 16.1 27.4 0.00 0.00 0.00 47 1007.2
20260504190419 18 211 16.1 27.4 0.00 0.00 0.00 46 1007.3
20260504190145 19 223 11.3 27.4 0.00 0.00 0.00 46 1007.2
20260504185420 18 223 11.3 22.5 0.00 0.00 0.00 46 1007.2
20260504184920 19 225 12.9 32.2 0.00 0.00 0.00 47 1007.4
20260504184417 20 219 16.1 32.2 0.00 0.00 0.00 50 1007.5
20260504183916 18 240 19.3 33.8 0.00 0.00 0.00 47 1007.3
20260504183638 20 257 19.3 33.8 0.00 0.00 0.00 46 1007.5
20260504182917 20 240 19.3 37.0 0.00 0.00 0.00 47 1007.7
20260504182417 20 243 20.9 38.6 0.00 0.00 0.00 49 1007.6
20260504181917 20 254 19.3 38.6 0.00 0.00 0.00 47 1007.5
20260504181416 19 246 20.9 37.0 0.00 0.00 0.00 52 1007.5
20260504181137 19 230 24.1 37.0 0.00 0.00 0.00 47 1007.6
20260504180418 19 231 24.1 37.0 0.00 0.00 0.00 48 1007.7
20260504175919 19 197 20.9 37.0 0.00 0.00 0.00 48 1007.8
20260504175418 19 242 17.7 33.8 0.00 0.00 0.00 52 1007.5
20260504174918 19 234 22.5 35.4 0.00 0.00 0.00 52 1007.7
20260504174417 17 257 24.1 35.4 0.00 0.00 0.00 48 1007.5
20260504173917 18 251 22.5 38.6 0.00 0.00 0.00 53 1007.8
20260504173417 18 208 20.9 38.6 0.00 0.00 0.00 50 1007.8
20260504172913 19 234 16.1 33.8 0.00 0.00 0.00 51 1007.8
20260504172411 19 220 17.7 33.8 0.00 0.00 0.00 52 1007.9
20260504172129 18 227 20.9 35.4 0.00 0.00 0.00 51 1007.8
20260504171636 18 242 22.5 37.0 0.00 0.00 0.00 54 1007.7
20260504170910 17 213 24.1 37.0 0.00 0.00 0.00 51 1007.7
20260504170413 18 233 22.5 38.6 0.00 0.00 0.00 52 1007.8
20260504160358 16 162 9.7 25.7 0.00 0.00 0.00 58 1008.1
20260504150854 15 190 11.3 29.0 0.00 0.00 0.00 56 1008.4
20260504150354 15 181 14.5 30.6 0.00 0.00 0.00 56 1008.5
20260504140846 13 224 9.7 22.5 0.00 0.00 0.00 56 1008.5
20260504140345 13 221 9.7 20.9 0.00 0.00 0.00 58 1008.6
20260504130603 10 182 6.4 14.5 0.00 0.00 0.00 62 1008.5
20260504120315 8 212 12.9 32.2 0.00 0.00 0.00 61 1008.6
20260504110240 8 166 8.0 20.9 0.00 0.00 0.00 63 1008.7
20260504100454 6 141 6.4 12.9 0.00 0.00 0.00 65 1008.6
20260504081708 8 228 8.0 19.3 0.00 0.00 0.00 61 1009.0
20260504081208 8 234 8.0 20.9 0.00 0.00 0.00 61 1008.9
20260504081153 8 207 9.7 20.9 0.00 0.00 0.00 61 1008.9
20260504080210 8 234 9.7 19.3 0.00 0.00 0.00 60 1008.9
20260504070209 8 211 8.0 16.1 0.00 0.00 0.00 61 1009.0
20260504060203 8 226 4.8 9.7 0.00 0.00 0.00 60 1009.1
20260504050643 8 165 9.7 16.1 0.00 0.00 0.00 58 1009.1
20260504050140 8 167 8.0 16.1 0.00 0.00 0.00 57 1009.2
20260504045641 8 158 8.0 14.5 0.00 0.00 0.00 57 1009.2
20260504045140 9 167 6.4 14.5 0.00 0.00 0.00 56 1009.2
20260504044639 9 161 6.4 9.7 0.00 0.00 0.00 57 1009.2
20260504044137 9 155 6.4 12.9 0.00 0.00 0.00 56 1009.1
20260504043634 9 166 6.4 12.9 0.00 0.00 0.00 55 1009.1
20260504043135 9 160 4.8 9.7 0.00 0.00 0.00 56 1009.1
20260504042634 9 171 4.8 9.7 0.00 0.00 0.00 57 1009.1
20260504042133 9 171 4.8 9.7 0.00 0.00 0.00 55 1009.1
20260504041634 9 173 4.8 9.7 0.00 0.00 0.00 56 1009.1
20260504041131 9 180 3.2 8.0 0.00 0.00 0.00 56 1009.2
20260504040632 9 182 3.2 8.0 0.00 0.00 0.00 55 1009.1